Orbital Elements at Epoch 2459200.5 (2020-Dec-17.0) TDB
Reference: JPL 13 (heliocentric ecliptic J2000)
Element | Value | Uncertainty (1-sigma) | Units |
e | .2909045614518136 | 5.0896e-08 | |
a | 2.568357184907489 | 1.3835e-08 | au |
q | 1.821210364380361 | 1.3424e-07 | au |
i | 4.679857384605225 | 6.3156e-06 | deg |
node | 266.8435058194596 | 7.6773e-05 | deg |
peri | 109.6378485061964 | 7.9313e-05 | deg |
M | 66.64760338807994 | 2.2516e-05 | deg |
tp | 2458922.167708328627 (2020-Mar-13.66770833) | 9.2131e-05 | TDB |
period | 1503.424277963086 4.12 | 1.2148e-05 3.326e-08 | d yr |
n | .2394533634163112 | 1.9348e-09 | deg/d |
Q | 3.315504005434617 | 1.786e-08 | au |
|
| | Orbit Determination Parameters
Additional Information
|